Location: ?ern� Novina
(50.6762°N, 14.8696°E)
Time: 12:42:15
(UTC+00:00)

Cosmos 2322 - Pass Details

Date: 03 March 2021
Orbit: 842 x 853 km, 71.0° (Epoch: 17 April)

Event Time Altitude Azimuth Distance (km) Brightness Sun altitude
Rises 18:02:07 0° 173° (S) 3,409 6.7 -12.9°
Reaches altitude 10° 18:04:50 10° 163° (SSE) 2,478 5.9 -13.3°
Maximum altitude 18:09:40 29° 105° (ESE) 1,509 4.4 -14.1°
Drops below altitude 10° 18:14:30 10° 47° (NE) 2,491 5.8 -14.9°
Sets 18:17:14 0° 36° (NE) 3,430 6.6 -15.3°
